Regional Weather Roundup
Issued by NWS

Home | Current Version | Previous Version | Text Only | Print | Product List | Glossary On
Versions: 1 2 3 4 5 6 7 8 9 10 11 12 13 14 15 16 17 18 19 20 21 22 23 24 25 26 27 28 29 30 31 32 33 34 35 36 37 38 39 40 41 42 43 44 45 46 47 48 49 50
393
ASUS43 KLMK 280810
RWRKY
KENTUCKY REGIONAL WEATHER ROUNDUP
NATIONAL WEATHER SERVICE LOUISVILLE KY
400 AM EDT SUN AUG 28 2016

NOTE "FAIR" INDICATES FEW OR NO CLOUDS BELOW 12,000 FEET
WITH NO SIGNIFICANT WEATHER AND/OR OBSTRUCTIONS TO VISIBILITY.

KYZ001>023-026-027-061>063-070>075-280900-
WESTERN AND SOUTH CENTRAL KENTUCKY

CITY           SKY/WX    TMP DP  RH WIND       PRES   REMARKS
PADUCAH        CLEAR     74  72  93 CALM      30.08S FOG
HENDERSON      CLEAR     73  70  88 SE3       30.08S
OWENSBORO      CLEAR     77  77 100 CALM      30.11R
HOPKINSVILLE   CLEAR     73  72  96 CALM      30.09S
BOWLING GREEN  CLEAR     74  72  93 CALM      30.11S
GLASGOW        CLEAR     70  70 100 CALM      30.12R
$$

KYZ024-025-028>034-038-045-046-053-280900-
NORTH CENTRAL KENTUCKY

CITY           SKY/WX    TMP DP  RH WIND       PRES   REMARKS
LOUISVILLE/SDF PTCLDY    76  72  87 CALM      30.12R
LOUISVILLE/LOU CLEAR     76  72  87 CALM      30.13R
FORT KNOX      CLEAR     71  70  97 NE3       30.12R
$$

KYZ035>037-039>044-047>052-055>060-089>105-280900-
NORTHEAST KENTUCKY

CITY           SKY/WX    TMP DP  RH WIND       PRES   REMARKS
LEXINGTON      PTCLDY    73  70  90 CALM      30.15R
COVINGTON      CLEAR     73  72  96 CALM      30.15S
FRANKFORT      PTCLDY    74  71  91 CALM      30.13S
$$

KYZ054-064>069-076>088-106>120-280900-
SOUTHEAST KENTUCKY

CITY           SKY/WX    TMP DP  RH WIND       PRES   REMARKS
JACKSON        CLOUDY    73  70  90 CALM      30.16R
LONDON         CLEAR     71  68  90 SE3       30.17R
SOMERSET       PTCLDY    68  68 100 CALM      30.16R
MIDDLESBORO    CLOUDY    67  67 100 CALM      30.18R
MONTICELLO     MOSUNNY  N/A N/A N/A N10       30.17R
$$





USA.gov is the U.S. government's official web portal to all federal, state and local government web resources and services.